Location: Unspecified
(0.0000°N, 0.0000°E)
Time: 18:29:06
(UTC+00:00)

NORSAT 2 - Visible Passes

Search period start: 17 April 2026 00:00
Search period end: 27 April 2026 00:00
Orbit: 498 x 510 km, 97.4° (Epoch: 17 April)

Date Brightness Start Highest point End Pass type
(mag) Time Alt. Az. Time Alt. Az. Time Alt. Az.
17 Apr ? 04:23:54 10° SE 04:26:38 20° E 04:29:22 10° NNE visible
18 Apr ? 04:08:08 10° E 04:08:13 10° ENE 04:08:18 10° ENE visible
19 Apr ? 05:19:48 10° S 05:23:19 42° WSW 05:26:50 10° NNW visible
20 Apr ? 05:01:10 10° SSE 05:04:52 89° ENE 05:08:34 10° N visible
21 Apr ? 04:42:54 10° SSE 04:46:24 41° E 04:49:53 10° N visible
22 Apr ? 04:25:06 10° SE 04:27:55 21° ENE 04:30:44 10° NNE visible
23 Apr ? 04:08:36 10° E 04:09:25 11° ENE 04:10:16 10° ENE visible
24 Apr ? 05:20:59 10° S 05:24:29 40° W 05:27:58 10° NNW visible
25 Apr ? 05:02:15 10° S 05:05:57 88° W 05:09:39 10° NNW visible
26 Apr ? 04:43:53 10° SSE 04:47:25 43° E 04:50:57 10° N visible
